2020-051C (45941 NORAD) Tracking and Keplerian Element Data

This shows tracking and keplerian element data for the satellite.

Feedback or suggestion? Click here.




ElementValue
Catalog45941
Name2020-051C
Epoch Orbit273
Epoch Day225.16718078
Epoch Year2020
RAAN298.8839
Inclination97.4967
Eccentricity0.0011831
Argument of Perigee207.656
Mean Anonmoly209.1853
Mean Motion15.25015284
Decay Rate6.65E-06
L11 45941U 20051C 20225.16718078 .00000665 00000-0 29542-4 0 9993
L22 45941 97.4967 298.8839 0011831 207.6560 209.1853 15.25015284 2737

Live tracking and technical data element details for 2020-051C (NORAD 45941). 2020-051C can be tracked NOW for your location showing map with azimuth and elevation plus other details from your city location.

Track the satellite on the map from your city or location and see movement details for azimuth, elevation, latitude, longitude, range, height, and movement on the map or in text.







IsCatalogInMostPopularTable: catalog: 45941, numindb: 1
Update: records affected: 1



GetName: 45941 2020-051C

Hit Count: updated at: Fri, 14 Aug 2020 05:14:59 GMT